Location: Newark
(42.9500°N, 17.1167°E)
Time: 10:58:03
(UTC+00:00)

Envisat - Visible Passes

Search period start: 29 September 2020 00:00
Search period end: 09 October 2020 00:00
Orbit: 764 x 766 km, 98.1° (Epoch: 29 September)

Date Brightness Start Highest point End Pass type
(mag) Time Alt. Az. Time Alt. Az. Time Alt. Az.
29 Sep 6.1 17:18:27 10° SW 17:21:56 18° W 17:25:25 10° NW visible
30 Sep 6.1 03:46:40 10° NE 03:50:04 18° E 03:53:26 10° SE visible
01 Oct 6.8 17:47:35 10° W 17:47:41 10° W 17:47:47 10° W visible
02 Oct 5.3 04:11:16 10° NE 04:15:43 30° E 04:20:10 10° SSE visible
02 Oct 5.8 17:06:28 10° SW 17:10:27 23° W 17:14:28 10° NW visible
03 Oct 6.3 03:35:59 10° ENE 03:38:34 14° E 03:41:08 10° ESE visible
04 Oct 6.4 17:33:48 10° WSW 17:36:10 13° W 17:38:34 10° WNW visible
05 Oct 5.7 04:00:11 10° NE 04:04:17 24° E 04:08:22 10° SSE visible
05 Oct 5.4 16:54:37 10° SSW 16:59:00 29° W 17:03:24 10° NW visible
06 Oct 6.6 03:26:00 10° ENE 03:27:03 11° E 03:28:06 10° E visible
07 Oct 4.6 04:25:04 10° NNE 04:29:53 41° E 04:34:40 10° SSE visible
07 Oct 6.2 17:21:26 10° SW 17:24:41 17° W 17:27:55 10° NW visible
08 Oct 6.0 03:49:12 10° NE 03:52:48 19° E 03:56:24 10° SE visible
08 Oct 4.9 16:42:54 10° SSW 16:47:34 36° W 16:52:16 10° NNW visible
